TimeAKDT,TemperatureF,Dew PointF,Humidity,Sea Level PressureIn,VisibilityMPH,Wind Direction,Wind SpeedMPH,Gust SpeedMPH,PrecipitationIn,Events,Conditions,WindDirDegrees,DateUTC
12:53 AM,12.9,6.1,74,30.45,10.0,ESE,6.9,-,N/A,,Overcast,110,2012-10-27 08:53:00
1:53 AM,12.9,6.1,74,30.45,10.0,ESE,5.8,-,N/A,,Overcast,110,2012-10-27 09:53:00
2:53 AM,12.9,6.1,74,30.44,10.0,ESE,4.6,-,N/A,,Overcast,110,2012-10-27 10:53:00
3:53 AM,14.0,6.1,71,30.42,10.0,Calm,Calm,-,N/A,,Overcast,0,2012-10-27 11:53:00
4:53 AM,14.0,6.1,71,30.42,10.0,Calm,Calm,-,N/A,,Overcast,0,2012-10-27 12:53:00
5:53 AM,12.9,8.1,81,30.40,10.0,Calm,Calm,-,N/A,,Overcast,0,2012-10-27 13:53:00
6:53 AM,10.9,6.1,81,30.41,9.0,Calm,Calm,-,0.00,Snow,Light Snow,0,2012-10-27 14:53:00
7:53 AM,10.9,7.0,84,30.39,9.0,Calm,Calm,-,0.00,Snow,Light Snow,0,2012-10-27 15:53:00
8:53 AM,10.9,6.1,81,30.38,9.0,Calm,Calm,-,0.00,Snow,Light Snow,0,2012-10-27 16:53:00
9:53 AM,12.0,7.0,80,30.38,9.0,Calm,Calm,-,0.00,Snow,Light Snow,0,2012-10-27 17:53:00
10:53 AM,14.0,8.1,77,30.35,9.0,ESE,5.8,-,0.00,Snow,Light Snow,110,2012-10-27 18:53:00
11:53 AM,15.1,8.1,74,30.35,9.0,ESE,6.9,-,0.00,,Mostly Cloudy,110,2012-10-27 19:53:00
12:53 PM,16.0,8.1,71,30.33,10.0,ESE,6.9,-,N/A,,Mostly Cloudy,110,2012-10-27 20:53:00
1:53 PM,17.1,9.0,71,30.31,10.0,East,5.8,-,N/A,,Mostly Cloudy,100,2012-10-27 21:53:00
2:53 PM,18.0,10.0,71,30.30,10.0,ESE,5.8,-,N/A,,Mostly Cloudy,120,2012-10-27 22:53:00
3:53 PM,18.0,10.0,71,30.29,10.0,Calm,Calm,-,N/A,,Mostly Cloudy,0,2012-10-27 23:53:00
4:53 PM,19.0,10.0,68,30.26,10.0,Calm,Calm,-,N/A,,Mostly Cloudy,0,2012-10-28 00:53:00
5:53 PM,16.0,9.0,74,30.26,10.0,Calm,Calm,-,N/A,,Mostly Cloudy,0,2012-10-28 01:53:00
6:53 PM,12.9,8.1,81,30.25,10.0,Calm,Calm,-,N/A,,Mostly Cloudy,0,2012-10-28 02:53:00
7:53 PM,15.1,10.0,80,30.23,10.0,Calm,Calm,-,N/A,,Overcast,0,2012-10-28 03:53:00
8:53 PM,15.1,9.0,77,30.21,10.0,Calm,Calm,-,N/A,,Overcast,0,2012-10-28 04:53:00
9:30 PM,15.8,10.4,79,30.08,10.0,East,4.6,-,N/A,,Overcast,90,2012-10-28 05:30:00
9:53 PM,16.0,10.0,77,30.21,10.0,NE,3.5,-,N/A,,Overcast,40,2012-10-28 05:53:00
10:53 PM,16.0,10.9,81,30.21,10.0,Calm,Calm,-,N/A,,Overcast,0,2012-10-28 06:53:00
11:53 PM,15.1,10.0,80,30.20,10.0,Calm,Calm,-,N/A,,Overcast,0,2012-10-28 07:53:00